SCP
1 1 1 1 1 1 0 0 0 0 0 0 0 0 0 0 0 0 0 0 0 0 0 0 0 0 0 0 0 0 0 0 0 0 0 0 0 0 0 0 0 0 0
1 1 1 1 1 1 0 0 0 0 0 0 0 0 0 0 0 0 0 0 0 0 0 0 0 0 0 0 0 0 0 0 0 0 0 0 0 0 0 0 0 0 0
2 1 1 1 1 1 1 0 0 0 0 0 0 0 0 0 0 0 0 0 0 0 0 0 0 0 0 0 0 0 0 0 0 0 0 0 0 0 0 0 0 0 0
2 2 1 1 1 1 1 1 0 0 0 0 0 0 0 0 0 0 0 0 0 0 0 0 0 0 0 0 0 0 0 0 0 0 0 0 0 0 0 0 0 0 0
2 2 1 1 1 1 1 1 0 0 0 0 0 0 0 0 0 0 0 0 0 0 0 0 0 0 0 0 0 0 0 0 0 0 0 0 0 0 0 0 0 0 0
2 2 2 1 1 1 1 1 0 0 0 0 0 0 0 0 0 0 0 0 0 0 0 0 0 0 0 0 0 0 0 0 0 0 0 0 0 0 0 0 0 0 0
2 2 2 2 1 1 1 1 0 0 0 0 0 0 0 0 0 0 0 0 0 0 0 0 0 0 0 0 1 1 0 0 0 0 0 0 0 0 0 0 0 0 0
2 2 2 2 2 1 1 1 0 0 0 0 0 0 0 0 0 0 0 0 0 0 0 0 0 0 0 1 1 1 1 0 0 0 0 0 0 0 0 0 0 0 0
2 3 2 2 2 1 1 1 0 0 0 0 0 0 0 0 0 0 0 0 0 0 0 0 0 0 1 1 1 1 1 0 0 0 0 0 0 0 0 0 0 0 0
2 3 3 2 2 1 1 1 0 0 0 0 0 0 0 0 0 0 0 0 0 0 0 0 0 0 1 1 1 1 0 0 0 0 0 0 0 0 0 0 0 0 0
2 2 2 2 2 1 1 1 0 0 0 0 0 0 0 0 0 0 0 0 0 0 0 0 0 0 0 1 1 1 0 0 0 0 0 0 0 0 0 0 0 0 0
3 2 2 2 2 1 1 1 1 0 0 0 0 0 0 0 0 0 0 0 0 0 0 0 0 0 0 0 1 1 0 0 0 0 0 0 0 0 0 0 0 0 0
3 2 2 2 2 1 1 1 1 0 0 0 0 0 0 0 0 0 0 0 0 0 0 0 0 0 0 0 0 0 0 0 0 0 0 0 0 1 0 0 0 0 0
3 2 2 2 2 2 2 1 1 1 0 0 0 0 0 0 0 0 0 0 0 0 0 0 0 0 0 0 0 0 0 0 0 0 0 0 0 1 0 0 0 0 0
3 3 2 2 3 2 2 1 1 1 0 0 0 0 0 0 0 0 0 0 0 0 0 0 0 0 0 0 0 0 0 0 0 0 0 0 0 1 0 0 0 0 0
3 3 3 3 3 3 2 1 1 1 1 0 0 0 0 0 0 0 0 0 0 0 0 0 0 0 0 0 0 0 0 0 0 0 0 0 0 0 0 0 0 0 0
4 4 4 3 3 3 2 2 1 1 1 0 0 0 0 0 0 0 0 0 0 0 0 0 0 0 0 0 0 0 0 0 0 0 0 0 0 0 0 0 0 0 0
5 5 4 4 3 2 2 2 2 1 1 0 0 0 0 0 0 0 0 0 0 0 0 0 0 0 0 0 0 0 0 0 0 0 0 0 0 0 0 0 0 0 0
5 5 5 4 2 2 2 2 2 1 1 0 0 0 0 0 0 0 0 0 0 0 0 0 0 0 0 0 0 0 0 0 0 0 0 0 0 0 0 0 0 0 0
5 5 5 4 3 2 2 2 1 1 0 0 0 0 0 0 0 0 0 0 0 0 0 0 0 0 0 0 0 0 0 0 0 0 0 0 0 0 0 0 0 0 0
4 4 4 4 3 2 2 2 1 1 0 0 0 0 0 0 0 0 0 0 0 0 0 0 0 0 0 0 0 0 0 0 0 0 0 0 0 0 0 0 0 0 0
3 3 3 3 3 2 2 2 1 1 0 0 0 0 0 0 0 0 0 0 0 0 0 0 0 0 0 0 0 0 0 0 0 0 0 0 0 0 0 0 0 0 0
2 3 3 3 2 2 2 2 1 1 1 0 0 0 0 0 0 0 0 0 0 0 0 0 0 0 0 0 0 0 0 0 0 0 0 0 0 0 0 0 0 0 0
2 2 2 2 2 1 1 1 1 1 1 0 0 0 0 0 0 0 0 0 0 0 0 0 0 0 0 0 0 0 0 0 0 0 0 0 0 0 0 0 0 0 0
2 3 3 2 1 1 1 1 1 1 0 0 0 0 0 0 0 0 0 0 0 0 0 0 0 0 0 0 0 0 0 0 0 0 0 0 0 0 0 0 0 0 0
3 3 3 2 1 1 1 1 0 0 0 0 0 0 0 0 0 0 0 0 0 0 0 0 0 0 0 0 0 0 0 0 0 0 0 0 0 0 0 0 0 0 0
Wind_Speed
9 11 17 19 19 18 17 17 17 17 16 16 16 16 16 16 16 15 14 13 13 12 11 10 10 10 9 9 9 9 10 10 11 13 15 15 15 16 16 16 15 11 18
13 13 18 19 19 18 18 17 17 17 16 16 15 15 15 15 15 14 13 12 12 12 11 10 10 9 9 9 9 9 9 9 11 13 14 14 15 15 15 15 14 10 16
16 14 17 19 19 18 18 17 17 17 16 15 15 15 14 14 14 13 13 12 11 11 11 10 9 9 9 8 8 8 9 9 11 13 13 6 9 14 15 15 15 15 15
17 13 15 19 19 19 18 17 17 17 16 15 15 14 14 14 13 12 12 12 11 10 10 9 9 9 8 8 7 7 8 9 10 11 6 4 6 13 15 14 14 15 15
14 12 16 21 20 19 18 17 17 17 16 15 15 14 13 13 13 12 12 11 10 10 9 9 8 8 8 8 7 7 7 8 9 8 5 5 5 12 14 14 14 14 14
12 11 15 20 20 19 18 17 17 17 16 15 14 13 13 12 12 11 11 11 10 9 9 8 7 7 7 7 8 7 6 6 7 5 5 5 5 11 13 13 14 14 14
11 9 14 20 20 19 18 18 17 16 16 15 14 13 12 12 11 11 11 10 9 9 8 7 6 6 6 6 7 8 7 7 6 5 4 4 5 11 13 13 13 13 13
14 10 12 19 20 19 18 18 17 16 15 15 14 13 12 11 10 10 10 10 9 9 8 7 5 4 4 5 6 8 8 7 7 7 5 4 8 11 13 13 12 13 13
13 11 9 11 14 18 18 17 17 16 15 14 13 12 12 11 10 10 9 9 9 8 8 7 5 3 3 4 5 8 9 9 6 4 6 4 8 11 13 13 13 13 12
11 11 9 8 8 9 10 16 16 15 14 13 12 11 11 10 10 10 8 8 9 8 7 7 5 4 2 1 4 7 10 9 5 4 3 4 10 12 13 13 13 13 12
11 9 9 9 8 7 7 12 12 13 13 11 9 10 8 4 4 5 7 9 9 8 8 6 5 4 2 0 2 6 7 3 4 3 2 6 10 13 14 13 13 13 12
13 11 9 10 9 8 8 6 4 5 5 4 3 4 3 2 3 5 6 9 9 8 7 6 6 4 2 0 1 4 3 3 3 2 3 9 10 13 14 13 13 12 12
13 11 9 9 9 8 5 5 3 2 3 3 3 3 2 2 1 2 1 2 3 5 2 3 3 1 1 1 1 2 3 3 2 2 3 9 11 13 14 13 13 13 12
12 11 9 8 7 7 7 5 4 3 3 2 3 3 3 2 2 2 1 1 1 1 2 2 1 2 2 2 3 4 4 3 3 1 3 10 11 12 14 13 13 13 13
12 11 10 9 8 7 6 5 5 4 4 3 3 3 4 3 2 2 1 1 1 1 2 2 2 2 2 2 3 4 4 5 5 3 3 10 11 12 13 14 14 13 13
11 10 9 9 8 7 6 5 5 5 4 4 3 4 4 3 3 2 2 1 1 1 2 2 2 2 2 2 2 4 5 5 5 5 4 6 11 12 13 14 14 14 14
10 9 9 10 8 7 7 7 6 5 5 4 3 4 4 4 3 3 2 2 1 1 2 2 2 1 1 1 1 3 4 5 5 6 5 4 5 10 12 13 13 13 14
10 9 10 11 9 7 6 6 6 5 5 4 3 3 4 4 4 3 3 2 1 2 2 2 2 2 1 1 1 1 2 3 5 5 5 4 4 4 8 12 12 11 12
11 11 9 9 10 8 7 6 6 5 5 4 3 3 3 4 4 3 2 2 3 3 3 2 2 2 1 1 1 1 2 2 3 5 5 5 5 4 4 7 11 11 12
9 10 9 9 8 8 6 6 5 5 4 3 3 3 4 3 4 4 3 3 3 4 3 2 3 2 1 1 1 1 0 1 2 3 4 3 4 5 5 5 5 7 11
8 9 10 9 8 7 6 6 5 4 4 3 3 4 4 4 4 4 3 3 3 3 2 2 2 3 2 1 3 3 3 2 0 1 2 2 3 3 4 4 4 3 4
8 9 9 9 9 8 6 5 4 5 3 3 2 3 4 4 4 4 4 3 3 3 3 3 3 2 2 2 3 3 3 4 3 1 1 2 3 2 3 4 4 4 3
10 10 10 9 8 7 7 5 4 4 3 2 2 2 2 4 4 4 4 3 3 3 2 2 3 3 2 2 2 3 3 2 2 3 1 1 2 2 2 2 3 4 4
10 9 9 8 8 7 7 7 8 6 4 4 3 3 3 3 4 4 4 4 3 3 3 2 3 2 3 2 2 1 2 3 3 0 3 2 1 2 2 2 2 3 4
10 9 9 9 7 6 6 7 7 5 4 3 3 4 3 2 3 4 4 4 4 3 3 3 3 3 3 2 1 1 2 2 2 3 1 2 3 2 2 2 2 3 3
8 8 9 9 7 7 7 6 7 7 6 5 5 4 3 2 2 3 4 4 4 3 3 3 3 3 2 3 2 2 2 2 1 2 2 1 2 3 2 2 2 2 3
Wind_Direction
150 154 146 139 134 130 127 123 119 116 114 111 109 108 106 106 105 105 105 106 106 106 104 102 99 95 93 93 97 103 111 118 124 126 126 123 119 117 114 112 111 110 112
148 152 146 141 138 135 132 129 125 122 120 118 115 114 112 111 110 109 108 108 107 107 106 103 100 95 92 92 96 102 109 115 123 125 124 120 119 118 115 114 114 116 115
143 147 145 142 140 138 135 133 130 128 126 123 121 119 117 117 115 115 113 111 110 109 109 106 102 96 92 89 92 99 109 117 123 120 114 104 114 119 119 118 117 116 116
142 144 144 142 141 139 138 136 134 132 131 129 127 126 124 123 122 120 118 116 114 114 112 108 102 95 89 84 84 92 106 115 120 118 107 105 114 121 122 121 120 119 118
139 141 144 142 141 140 139 138 137 135 135 135 133 132 130 129 128 126 124 122 118 118 116 110 104 95 86 80 77 83 98 113 124 117 109 102 108 126 125 125 124 122 121
136 140 144 143 142 141 141 140 139 139 139 138 137 136 135 134 134 132 130 128 126 123 120 115 108 96 84 74 70 69 83 114 117 111 113 114 119 132 130 130 129 127 124
136 141 143 143 143 143 143 143 143 143 143 142 142 142 142 141 141 140 138 136 133 130 125 120 113 99 84 70 62 60 66 112 115 117 122 123 133 136 136 135 134 131 128
140 140 143 145 144 145 146 146 147 147 147 148 148 149 149 148 147 147 147 147 145 141 137 134 127 109 86 69 57 58 71 111 130 137 132 135 146 142 139 138 137 135 134
140 143 144 146 146 148 149 150 150 151 151 153 154 155 155 157 159 159 159 160 157 154 153 151 148 136 96 67 57 63 80 109 123 122 144 147 153 148 145 144 143 141 140
143 147 146 144 143 146 151 154 154 155 156 159 161 163 166 169 172 174 173 176 172 169 167 166 165 162 144 75 61 75 92 105 116 125 129 160 160 154 151 150 149 148 148
150 151 151 148 146 145 151 159 157 159 162 164 167 172 173 175 180 183 189 191 187 184 182 181 180 180 187 71 55 88 99 108 125 127 143 170 168 161 158 158 156 155 154
161 161 160 157 155 155 160 149 152 155 157 157 163 168 161 170 191 193 205 202 198 195 192 191 193 192 185 76 46 92 109 126 127 146 179 180 179 170 165 163 162 161 160
161 161 164 163 163 163 149 152 152 143 147 155 164 160 147 150 170 171 168 205 205 198 185 196 197 172 157 156 119 111 128 132 150 174 187 189 188 178 172 169 168 168 166
155 161 163 163 164 164 152 157 154 146 150 152 152 140 127 121 119 131 142 164 161 160 165 171 181 181 171 161 148 135 144 149 169 178 198 198 196 185 178 175 174 174 173
158 161 162 163 163 159 152 157 153 150 150 144 128 117 122 120 122 125 130 134 148 146 155 167 174 174 172 165 158 147 151 166 174 178 208 206 201 192 185 182 181 180 179
165 159 159 161 161 155 153 146 143 141 138 126 116 117 115 115 114 114 104 99 103 134 151 158 161 163 175 169 167 148 159 163 175 183 200 213 208 198 193 189 188 187 185
163 154 160 154 149 149 145 142 136 136 131 122 120 116 109 107 106 108 101 86 64 85 115 111 110 108 125 144 177 153 160 171 177 186 191 200 205 206 201 195 194 194 192
158 158 164 152 146 144 135 132 131 133 128 127 125 114 102 100 104 95 93 75 59 75 95 103 90 92 84 99 130 155 160 170 183 187 191 195 198 205 207 203 198 198 199
166 158 152 146 147 143 133 128 127 129 128 132 124 113 105 99 101 96 88 67 77 78 78 99 82 99 102 107 144 150 162 171 179 184 188 194 197 199 199 212 207 202 205
158 152 149 149 142 134 125 118 116 118 128 129 128 132 120 109 103 99 91 72 79 80 67 70 73 65 101 125 87 87 99 170 164 170 182 185 196 202 199 206 204 212 213
154 152 153 151 146 141 139 141 141 142 146 142 150 148 131 121 107 98 95 81 82 86 82 77 75 59 37 47 66 32 7 8 67 188 175 168 186 197 193 197 195 199 216
166 160 158 158 153 154 151 150 146 143 151 154 153 147 141 132 125 116 113 105 98 90 69 58 68 76 29 45 106 89 34 359 353 357 169 165 173 171 180 191 189 194 205
174 169 168 165 158 158 149 130 119 100 93 97 138 160 162 144 134 126 123 116 110 109 101 82 78 92 68 17 78 133 136 193 301 335 342 158 168 166 184 183 189 195 198
179 171 165 167 162 158 149 147 148 148 159 182 181 177 172 158 149 142 132 123 116 116 114 107 93 97 104 55 11 38 137 153 142 18 333 331 267 188 196 195 182 185 186
177 171 167 166 164 161 156 156 153 153 167 163 159 163 172 174 171 164 149 132 129 129 129 111 102 94 103 110 81 54 56 58 90 131 210 315 332 302 238 210 189 182 185
174 171 169 166 170 169 163 164 164 164 162 157 165 172 183 190 196 189 168 153 150 150 148 141 128 119 113 109 101 98 114 112 121 128 153 247 286 294 290 251 211 194 193